Location: Heuzel
(47.9667°N, 1.6833°W)
Time: 16:33:12
(UTC+00:00)

Daily predictions for brighter satellites

Satellite Brightness Start Highest point End
(mag) Time Altitude Azimuth Time Altitude Azimuth Time Altitude Azimuth
Cosmos 2082 Rocket 2.2 20:37:03 10° SSW 20:42:45 77° ESE 20:48:28 10° NNE
Spot 2 Rocket 4.2 20:39:12 10° SE 20:43:56 42° ENE 20:48:42 10° N
IRIDIUM 103 4.4 20:39:33 10° N 20:44:49 89° E 20:50:02 10° S
Cosmos 1933 Rocket 3.8 20:41:38 10° N 20:46:01 58° ENE 20:50:23 10° SSE
Cosmos 1470 2.7 20:42:58 10° N 20:46:38 62° ENE 20:50:18 10° SSE
SPOT 5 2.6 20:44:11 10° SSE 20:48:29 88° E 20:52:54 10° NNW
Cosmos 1626 4.1 20:49:12 10° SW 20:51:59 27° WNW 20:54:46 10° NNW
Cosmos 1908 3.4 20:50:18 10° N 20:53:49 50° ENE 20:57:20 10° SSE
Cosmos 1674 2.7 20:56:32 10° SSW 20:59:58 72° W 21:03:27 10° N
ATLAS 2AS CENTAUR R/B 3.7 20:53:39 10° NW 21:00:07 40° NNE 21:06:21 10° ESE
IRS-1C Rocket 4.2 20:55:19 10° SSE 21:00:34 86° WSW 21:05:52 10° NNW
Cosmos 468 Rocket 4.0 21:01:17 10° NNW 21:06:34 89° WSW 21:11:45 10° SSE
KORONAS-FOTON 3.8 21:02:53 10° SSW 21:06:35 80° W 21:10:21 10° N
Ariane Rocket 3.2 21:03:21 10° SSE 21:08:22 63° ENE 21:13:26 10° N
Cosmos 1842 3.5 21:06:29 10° SSW 21:10:06 67° W 21:13:46 10° N
Cosmos 2251 Rocket 4.4 21:05:54 10° SW 21:11:04 54° WNW 21:16:19 10° NNE
COSMOS 2406 3.5 21:10:14 10° SSW 21:15:59 76° WNW 21:21:46 10° NNE
SPOT 3 Rocket 3.6 21:12:15 10° SSE 21:17:19 69° ENE 21:22:28 10° N
Meteor 1-13 Rocket 4.3 21:13:06 10° S 21:18:52 73° E 21:24:33 10° NNE
SL-27 R/B 4.2 21:19:34 10° ESE 21:19:47 10° E 21:20:00 10° E
Cosmos 1553 Rocket 4.3 21:14:40 10° NNW 21:20:46 66° W 21:26:56 10° S
CZ-4C R/B 4.4 21:17:00 10° N 21:21:00 50° WNW 21:25:00 10° SW
Cosmos 1980 Rocket 3.7 21:17:11 10° NW 21:22:08 31° WSW 21:27:03 10° SSW
Cosmos 2322 Rocket 2.8 21:16:55 10° NNW 21:22:27 49° NE 21:27:28 12° SE
S3M 4.1 21:16:34 10° N 21:22:58 74° E 21:29:06 11° SSE
Cosmos 1655 Rocket 4.3 21:23:04 10° SSE 21:29:12 52° E 21:35:23 10° NNE
SJ 16-02 3.1 21:28:53 13° ESE 21:30:37 16° E 21:33:14 10° ENE
Cosmos 2278 3.8 21:25:42 10° NNW 21:31:26 79° WSW 21:36:26 14° SSE
Landsat 5 4.0 21:28:14 10° NNE 21:31:58 38° E 21:35:02 15° SSE
Landsat 4 3.6 21:32:54 14° S 21:35:50 72° WSW 21:39:17 10° NNW
Cosmos 540 Rocket 4.3 21:31:35 10° NNW 21:36:30 46° WSW 21:41:23 10° S
Tiangong -0.3 21:34:31 10° WSW 21:36:38 17° SSW 21:37:28 15° S
USA 245 4.1 21:34:22 10° S 21:37:29 44° W 21:41:26 10° NNW
USA 281 4.0 21:32:45 10° ESE 21:38:46 42° NE 21:44:53 10° NNW
Cosmos 2266 Rocket 4.0 21:32:32 10° S 21:38:51 84° E 21:45:18 10° N
Cosmos 1400 Rocket 2.7 21:35:14 10° S 21:39:04 71° E 21:42:55 10° NNE
Cosmos 1733 Rocket 3.5 21:36:53 10° N 21:41:10 48° ENE 21:44:16 18° SE
MetOp-A 4.3 21:37:25 15° SSE 21:41:36 62° ENE 21:46:48 10° N
Cosmos 1707 4.1 21:38:57 10° SW 21:42:17 35° WNW 21:45:39 10° N
Terra 2.4 21:37:55 10° S 21:42:31 54° W 21:47:09 10° NNW
Cosmos 2237 4.4 21:37:33 10° NNW 21:43:17 73° WSW 21:47:58 15° SSE
Cosmos 968 Rocket 4.2 21:41:01 15° SSE 21:44:31 33° ESE 21:49:08 10° NE
SL-4 R/B 2.7 21:42:18 10° W 21:46:06 54° N 21:50:10 10° ENE
Cosmos 2228 Rocket 3.3 21:44:42 15° S 21:48:23 58° E 21:52:53 10° NNE
SL-08 ROCKET BODY 4.5 21:43:14 10° S 21:49:23 89° W 21:55:30 10° N
Cosmos 676 Rocket 4.5 21:45:15 10° SSW 21:50:32 65° WNW 21:55:51 10° NNE
Cosmos 2219 Rocket 3.3 21:45:49 10° NNW 21:51:03 36° NE 21:55:47 12° ESE
Cosmos 1315 Rocket 4.4 21:51:04 17° ESE 21:52:37 21° E 21:55:36 10° NE
ATLAS CENTAUR R/B 1.8 21:52:13 22° SSE 21:53:35 29° ESE 21:56:44 10° ENE
Meteor 2-10 Rocket 3.7 21:50:34 10° NNW 21:56:14 83° W 22:00:34 16° S
SeaSat 1 3.9 21:52:08 10° S 21:56:23 29° WSW 22:00:39 10° NW
Cosmos 1953 3.7 21:55:41 10° NNE 21:58:54 25° ENE 22:00:51 17° ESE
Cosmos 1455 3.7 21:59:19 10° NNE 22:02:08 22° ENE 22:03:41 17° ESE
H-2A R/B 4.3 21:59:30 12° ESE 22:02:16 21° ENE 22:05:31 10° NNE
Meteor 1-23 Rocket 4.3 21:59:15 10° SSW 22:04:54 82° WNW 22:10:40 10° N
Okean 1-7 3.9 22:04:58 22° SE 22:07:01 33° E 22:10:54 10° NNE
USA 234 3.6 22:00:38 10° NE 22:07:08 69° NNW 22:13:37 10° WSW
BREEZE-M DEB (TANK) 2.0 22:05:35 10° W 22:07:39 57° SSW 22:09:08 25° SE
CZ-2C R/B 4.4 22:05:31 10° NNE 22:09:34 35° E 22:11:36 23° SE
Cosmos 2315 Rocket 4.2 22:07:40 10° NNW 22:14:01 71° W 22:19:13 16° S
Cosmos 2360 Rocket 2.2 22:08:37 10° NNW 22:14:21 88° ENE 22:18:06 22° SSE
Cosmos 841 Rocket 4.2 22:12:00 10° NNW 22:17:03 47° WSW 22:20:45 18° S
RESURS DK-1 2.8 22:15:04 10° NW 22:19:02 52° WSW 22:21:10 25° S
Cosmos 2333 Rocket 2.2 22:13:35 10° NNW 22:19:22 89° NE 22:23:08 23° SSE
SL-14 R/B 3.6 22:17:26 15° SSW 22:20:26 58° WNW 22:24:12 10° N
SL-16 R/B 3.0 22:16:34 10° NW 22:21:53 43° WSW 22:25:47 17° S
Atlas Centaur 2 4.1 22:18:24 10° SW 22:24:06 21° S 22:25:49 19° S
Cosmos 1300 3.4 22:21:29 10° NNW 22:24:52 42° W 22:26:54 20° SSW
EXPRESS MD2 2.3 22:23:45 10° W 22:26:07 61° N 22:27:54 13° ENE
BREEZE-M DEB (TANK) 4.2 22:11:19 10° WSW 22:30:51 85° N 22:35:23 10° ENE
Aureole 3 3.4 22:30:50 25° SSW 22:33:01 82° W 22:37:37 10° N
Cosmos 1346 Rocket 3.5 22:30:49 10° NNW 22:34:31 43° W 22:36:35 22° SSW
Cosmos 1703 Rocket 4.2 22:32:44 27° SE 22:34:36 42° E 22:38:50 10° NNE
Cosmos 1833 4.1 22:30:08 16° SSW 22:34:37 71° ESE 22:40:14 10° NNE
Cosmos 1862 Rocket 3.9 22:32:48 18° SSW 22:36:00 63° WNW 22:40:23 10° N
Meteor 1-4 Rocket 2.0 22:41:49 42° SSW 22:42:41 78° WNW 22:45:42 10° N
Cosmos 839 Rocket 4.1 22:36:44 10° NW 22:43:48 87° SW 22:47:42 25° SSE
Meteor 1-16 Rocket 4.4 22:38:01 10° NNW 22:43:56 74° W 22:47:38 24° S
Cosmos 2322 4.2 22:40:11 10° NNW 22:45:46 53° ENE 22:49:29 21° SE
Cosmos 2237 Rocket 4.1 22:42:03 10° N 22:46:32 23° NE 22:50:59 10° E
BlueWalker 3 4.3 22:50:03 10° E 22:50:03 10° E 22:50:06 10° E
ATLAS 2AS CENTAUR R/B 2.8 22:44:40 10° NW 22:51:25 64° WSW 22:55:16 26° SSE
Cosmos 2333 4.3 22:45:56 10° NNW 22:51:40 69° WSW 22:54:50 27° S
SL-27 R/B 3.3 22:50:57 20° WSW 22:52:21 35° WNW 22:54:58 10° N
ARIANE 5 R/B 2.6 22:54:58 32° S 22:56:54 70° WSW 23:01:14 10° NNW
SL-24 R/B - RUBIN 2 4.5 22:50:51 10° NW 22:57:33 86° NE 23:01:28 25° SE
Kosmos-1783 4.5 22:54:46 10° NW 22:58:32 84° NE 23:03:34 20° SE
PSLV R/B 3.7 22:57:11 10° NNE 23:01:13 87° ESE 23:02:51 35° SSW
Okean 2 3.5 23:00:22 29° SSW 23:02:15 67° W 23:06:16 10° N
Cosmos 2322 Rocket 3.4 23:01:21 10° NW 23:06:15 31° WSW 23:09:15 19° SSW
Cosmos 1570 Rocket 4.1 23:01:13 10° NNW 23:06:35 74° ENE 23:09:22 29° SE
SJ 16-02 1.8 23:05:35 20° SW 23:08:29 58° WNW 23:12:46 10° NNE
Cosmos 1745 Rocket 4.1 23:05:11 28° SSE 23:08:42 67° E 23:15:01 10° NNE
Cosmos 1241 Rocket 4.4 23:04:14 15° SSW 23:09:25 83° ESE 23:15:41 10° NE
COSMOS 2455 3.8 23:08:58 25° SE 23:10:50 30° ESE 23:15:59 10° NE
Cosmos 2297 Rocket 3.6 23:13:10 19° ESE 23:14:42 22° E 23:18:52 10° NE
Nadezhda 1 Rocket 4.0 23:11:56 10° N 23:18:18 87° W 23:21:42 29° S
GP-B 3.5 23:15:44 10° N 23:20:03 56° W 23:22:05 29° SSW
Cosmos 1408 2.4 23:22:14 48° E 23:22:14 48° E 23:25:06 10° NNE
USA 281 3.7 23:19:37 25° S 23:23:11 48° WSW 23:29:33 10° NW
COSMOS 2428 2.7 23:19:27 10° NNW 23:25:10 81° ENE 23:28:12 29° SSE
SL-4 R/B 2.7 23:21:19 10° WNW 23:25:17 56° N 23:29:29 10° E
Cosmos 1315 Rocket 4.1 23:26:20 20° SW 23:28:31 35° WNW 23:32:14 10° N
Cosmos 1908 Rocket 4.5 23:26:13 10° NNW 23:30:16 38° W 23:31:58 27° SW
GEOS 3 Rocket 4.4 23:25:54 10° ENE 23:30:27 31° ESE 23:31:28 29° SE
ATLAS CENTAUR R/B 2.9 23:28:04 10° WSW 23:31:12 29° NW 23:34:27 10° NNE
Cosmos 1782 Rocket 3.6 23:28:29 10° NNW 23:32:48 69° W 23:34:15 40° SSW
CZ-3 Stage 3 4.4 23:09:07 10° W 23:33:03 31° SW 23:37:06 25° S
Cosmos 1953 3.7 23:31:26 10° NNW 23:34:41 27° W 23:35:58 22° WSW
Cosmos 2219 Rocket 2.8 23:29:44 10° NW 23:35:05 44° WSW 23:37:28 29° SSW
Cosmos 1242 Rocket 3.0 23:35:32 33° W 23:35:50 34° WNW 23:38:25 10° N
Cosmos 1455 3.5 23:33:36 10° NNW 23:36:32 25° W 23:37:24 23° WSW
H-2A R/B 3.1 23:35:29 33° SSW 23:36:54 46° W 23:41:04 10° NNW
Cosmos 2208 Rocket 3.9 23:32:06 10° NNW 23:37:20 84° WSW 23:39:34 35° SSE
Spot 2 4.4 23:35:40 35° S 23:37:50 79° WSW 23:42:56 10° NNW
Cosmos 158 Rocket 3.9 23:34:28 10° NNW 23:39:50 86° WSW 23:42:07 35° SSE
Cosmos 371 Rocket 3.8 23:38:59 35° SSE 23:40:23 45° ESE 23:44:58 10° NE
BREEZE-M DEB (TANK) 4.0 23:38:32 10° W 23:41:56 76° N 23:52:56 10° E
Cosmos 836 Rocket 4.4 23:37:01 10° NNW 23:42:15 89° ENE 23:44:34 34° SSE
Spot 4 4.3 23:42:36 33° SSW 23:44:25 50° W 23:49:07 10° NNW
Cosmos 773 Rocket 4.2 23:42:03 10° NNW 23:47:10 63° ENE 23:49:51 28° SE
GENESIS II 3.9 23:49:40 50° SW 23:50:33 89° NW 23:54:13 10° NE
ALOS 2 2.8 23:49:16 38° SSW 23:50:40 58° W 23:55:01 10° NNW
Cosmos 1503 Rocket 4.5 23:51:55 33° SSE 23:53:50 47° ESE 23:58:54 10° NNE
Cosmos 1300 Rocket 4.0 23:50:50 10° NNW 23:54:59 48° W 23:56:18 35° SW
Okean 2 Rocket 4.0 23:51:19 10° N 23:55:34 42° ENE 23:57:29 27° SE
